AT491 Weather Reports


time (UTC)temp
F
wind
direction
speed
knots
gust
knots
rain 1hr
in
rain 24hr
in
rain mn
in
humidity
%
barometer
mb
20260906214617 86 0 0.0 5.2 0.00 0.00 0.00 23 1020.8
20260906213110 86 131 1.7 7.0 0.00 0.00 0.00 25 1021.0
20260906211600 85 97 4.3 7.8 0.00 0.00 0.00 27 1021.3
20260906210100 85 107 3.5 8.7 0.00 0.00 0.00 28 1021.4
20260906204616 85 103 3.5 8.7 0.00 0.00 0.00 28 1021.8
20260906203101 85 98 3.5 7.8 0.00 0.00 0.00 27 1021.8
20260906201604 85 148 3.5 7.0 0.00 0.00 0.00 27 1022.0
20260906194605 85 170 1.7 7.8 0.00 0.00 0.00 26 1022.3
20260906193104 84 113 2.6 8.7 0.00 0.00 0.00 28 1022.4
20260906191612 85 87 3.5 8.7 0.00 0.00 0.00 28 1022.7
20260906190105 85 87 1.7 9.6 0.00 0.00 0.00 28 1023.1
20260906184606 84 95 5.2 9.6 0.00 0.00 0.00 28 1023.3
20260906183103 84 106 0.9 7.0 0.00 0.00 0.00 28 1023.5
20260906181602 83 132 0.0 6.1 0.00 0.00 0.00 28 1023.8
20260906180116 83 112 2.6 7.0 0.00 0.00 0.00 29 1024.1
20260906174601 81 63 0.0 8.7 0.00 0.00 0.00 30 1024.2
20260906173106 82 82 0.9 4.3 0.00 0.00 0.00 29 1024.3
20260906171606 82 114 0.0 7.0 0.00 0.00 0.00 29 1024.5
20260906170103 82 0 0.0 4.3 0.00 0.00 0.00 29 1024.5
20260906164602 80 74 0.0 5.2 0.00 0.00 0.00 31 1024.6
20260906163123 80 122 0.0 6.1 0.00 0.00 0.00 29 1024.6
20260906161612 79 92 1.7 9.6 0.00 0.00 0.00 30 1024.5
20260906160113 79 84 1.7 8.7 0.00 0.00 0.00 30 1024.6
20260906154607 79 79 3.5 7.8 0.00 0.00 0.00 29 1024.4
20260906153109 82 0 0.0 0.9 0.00 0.00 0.00 27 1024.3
20260906151609 79 44 0.0 2.6 0.00 0.00 0.00 30 1024.3
20260906150108 77 0 0.0 4.3 0.00 0.00 0.00 30 1024.2
20260906144601 76 0 0.9 3.5 0.00 0.00 0.00 31 1024.2
20260906143106 75 0 0.0 1.7 0.00 0.00 0.00 35 1024.3
20260906141602 74 0 0.0 0.9 0.00 0.00 0.00 38 1024.3
20260906140108 73 0 0.0 0.0 0.00 0.00 0.00 37 1024.2
20260906134602 69 0 0.0 1.7 0.00 0.00 0.00 40 1024.0
20260906133129 64 0 0.0 0.9 0.00 0.00 0.00 46 1024.0
20260906131618 63 0 0.0 1.7 0.00 0.00 0.00 46 1023.9
20260906130113 60 0 0.0 0.0 0.00 0.00 0.00 51 1023.5
20260906124603 60 0 0.0 0.9 0.00 0.00 0.00 50 1023.4
20260906123105 61 0 0.0 0.0 0.00 0.00 0.00 47 1023.6
20260906121601 63 0 0.0 1.7 0.00 0.00 0.00 44 1023.5
20260906120104 65 0 0.0 1.7 0.00 0.00 0.00 41 1023.5
20260906114604 67 243 0.0 3.5 0.00 0.00 0.00 39 1023.4
20260906113102 67 0 0.9 7.0 0.00 0.00 0.00 39 1023.4
20260906111600 66 243 0.0 3.5 0.00 0.00 0.00 39 1023.4
20260906110100 65 0 0.0 2.6 0.00 0.00 0.00 41 1023.2
20260906104611 64 0 0.0 0.9 0.00 0.00 0.00 43 1023.2
20260906103102 62 0 0.0 1.7 0.00 0.00 0.00 45 1023.2
20260906101608 64 0 0.0 0.9 0.00 0.00 0.00 42 1023.1
20260906100116 63 248 0.0 2.6 0.00 0.00 0.00 45 1023.1
20260906094621 65 0 0.0 0.0 0.00 0.00 0.00 42 1023.1
20260906093104 67 0 0.0 2.6 0.00 0.00 0.00 38 1023.1
20260906091601 68 0 0.0 4.3 0.00 0.00 0.00 36 1023.1
20260906090122 63 0 0.0 2.6 0.00 0.00 0.00 44 1023.2
20260906084605 59 0 0.0 0.9 0.00 0.00 0.00 54 1023.1
20260906083101 58 0 0.0 0.9 0.00 0.00 0.00 57 1023.1
20260906081601 59 0 0.0 0.9 0.00 0.00 0.00 57 1023.0
20260906074605 60 0 0.0 0.0 0.00 0.00 0.00 58 1023.2
20260906073104 61 0 0.0 0.0 0.00 0.00 0.00 55 1023.0
20260906071602 61 0 0.0 0.0 0.00 0.00 0.00 55 1023.0
20260906070119 61 0 0.0 0.0 0.00 0.00 0.00 56 1022.9
20260906064607 62 0 0.0 0.0 0.00 0.00 0.00 54 1023.1
20260906063104 62 0 0.0 0.0 0.00 0.00 0.00 55 1023.0
20260906061607 63 0 0.0 0.9 0.00 0.00 0.00 52 1023.2
20260906060107 63 0 0.0 0.9 0.00 0.00 0.00 51 1023.1
20260906054558 62 0 0.0 0.9 0.00 0.00 0.00 52 1023.2
20260906053103 63 0 0.0 0.0 0.00 0.00 0.00 52 1023.3
20260906051604 64 0 0.0 2.6 0.00 0.00 0.00 48 1023.3
20260906050103 65 0 0.0 0.9 0.00 0.00 0.00 47 1023.2
20260906044600 66 0 0.0 0.9 0.00 0.00 0.00 46 1023.4
20260906043101 66 0 0.0 0.0 0.00 0.00 0.00 44 1023.5
20260906041601 66 0 0.0 1.7 0.00 0.00 0.00 45 1023.4
20260906034604 66 0 0.0 0.9 0.00 0.00 0.00 47 1023.5
20260906033106 66 0 0.0 0.9 0.00 0.00 0.00 48 1023.4
20260906031601 66 0 0.0 0.0 0.00 0.00 0.00 49 1023.2
20260906024602 65 0 0.0 0.9 0.00 0.00 0.00 54 1023.0
20260906023101 68 0 0.0 0.0 0.00 0.00 0.00 49 1022.8
20260906021607 69 0 0.0 0.0 0.00 0.00 0.00 46 1022.7
20260906020104 71 0 0.0 0.9 0.00 0.00 0.00 40 1022.4
20260906014611 71 153 0.0 0.0 0.00 0.00 0.00 43 1022.2
20260906013103 72 0 0.0 0.0 0.00 0.00 0.00 45 1022.0
20260906011618 75 0 0.0 0.0 0.00 0.00 0.00 40 1022.0
20260906010105 79 0 0.0 0.0 0.00 0.00 0.00 33 1021.9
20260906004601 81 70 0.0 3.5 0.00 0.00 0.00 30 1021.8
20260906003113 82 170 0.9 4.3 0.00 0.00 0.00 29 1021.6
20260906001605 83 82 0.0 2.6 0.00 0.00 0.00 27 1021.5
20260906000108 85 0 0.0 2.6 0.00 0.00 0.00 26 1021.5
20260905234606 84 0 0.0 3.5 0.00 0.00 0.00 27 1021.5
20260905233130 85 162 0.0 2.6 0.00 0.00 0.00 27 1021.5
20260905231601 84 105 0.0 5.2 0.00 0.00 0.00 28 1021.5
20260905230059 83 86 2.6 5.2 0.00 0.00 0.00 28 1021.5
20260905224620 83 98 0.0 2.6 0.00 0.00 0.00 28 1021.6
20260905223107 83 0 0.0 3.5 0.00 0.00 0.00 29 1021.6
20260905221601 83 120 0.9 5.2 0.00 0.00 0.00 31 1021.6
20260905220106 83 148 3.5 7.8 0.00 0.00 0.00 31 1021.8